Council Grove, KS (66846)

11:20 PM CST on February 22, 2017 (GMT -0600)
30th & Graphic Arts Rd | | Change Station

Elev 1180 ft 38.44 °N, 96.23 °W | Updated 16 seconds ago

Partly Cloudy
Partly Cloudy
56.7 °F
Feels Like 56.7 °F
N
5.0
Wind Variable Wind from North
Gusts 5.0 mph

Today
High -- | Low -- °F
--% Chance of Precip.
Yesterday
High -- | Low -- °F
Precip. -- in
Pressure 29.68 in
Visibility 10.0 miles
Clouds Clear
Dew Point 42 °F
Humidity 59%
Rainfall 0.00 in
Snow Depth Not available.
7:07 AM 6:11 PM
Waning Crescent, 12% visible
METAR KEMP 230453Z AUTO 16003KT 10SM CLR 10/05 A2968 RMK AO2 SLP048 T01000050
Pressure 29.68 in
Visibility 10.0 miles
Clouds Clear
Dew Point 42 °F
Humidity 59%
Rainfall 0.00 in
Snow Depth Not available.
7:07 AM 6:11 PM
Waning Crescent, 12% visible
METAR KEMP 230453Z AUTO 16003KT 10SM CLR 10/05 A2968 RMK AO2 SLP048 T01000050

Get Your Daily Forecast Email!

Thanks for signing up!

Be on the lookout for a verification email in your inbox.

You'll start receiving the daily forecast at 8 AM.

×

10-Day Weather Forecast

Almanac

Astronomy

Feb. 22, 2017 Rise Set
Actual Time
Civil Twilight
Nautical Twilight
Astronomical Twilight
Moon
Length of Visible Light
Length of Day
Tomorrow will be .
, % of the Moon is Illuminated

Today's Extremes

State Highs State Lows

Community

WunderPhotos

Upload Photos

1,962,540 photos uploaded!

WunderBlog® & News

Nearby

Air Quality

  Air Quality AQ Index Pollutant
Not available.

Snow Depth

Station Depth Elevation

Earthquake Activity

City Distance Mag. Time & Date
Minimum magnitude displayed is 2.5.

Coastal Water Temperatures

Place Temperature

Stations

Nearby Weather Stations

Station Location Temp. Windchill Dew Point Humidity Wind Precip. Elev Updated Type
                   

Watches & Warnings

There are currently no watches in effect.